Weather Roundup
Issued by NWS Chicago, IL

Home | Current Version | Previous Version | Text Only | Print | Product List | Glossary On
Versions: 1 2 3 4 5 6 7 8 9 10 11 12 13 14 15 16 17 18 19 20 21 22 23 24 25 26 27 28 29 30 31 32 33 34 35 36 37 38 39 40 41 42 43 44 45 46 47 48 49 50
000
NZUS59 KLOT 231609
HRRLOT

CHICAGO AREA WEATHER ROUNDUP
NATIONAL WEATHER SERVICE CHICAGO/ROMEOVILLE IL
1100 AM CDT WED AUG 23 2017

NOTE: "FAIR" INDICATES FEW OR NO CLOUDS BELOW 12,000 FEET WITH NO
SIGNIFICANT WEATHER AND/OR OBSTRUCTIONS TO VISIBILITY.

* THESE STATIONS ARE NOT UNDER NWS QUALITY CONTROL. THEY ALSO MAY NOT
  REPORT WEATHER SUCH AS PRECIPITATION OR FOG.

ILZ005-006-012>014-019>023-231700-
NORTHEAST ILLINOIS

CITY           SKY/WX    TMP DP  RH WIND       PRES   REMARKS
OHARE          MOSUNNY   74  50  42 NW13      30.04S
MIDWAY         MOSUNNY   75  50  41 NW13G18   30.04R
AURORA         SUNNY     70  56  61 W5        30.07S
LANSING*       SUNNY     75  53  46 NW8G16    30.05S
JOLIET*        SUNNY     73  55  54 W6        30.07S
WAUKEGAN       SUNNY     71  54  54 NW8G18    30.04R
DUPAGE AIRPORT SUNNY     72  56  57 NW8       30.05S
WHEELING       SUNNY     73  52  47 NW13      30.06R
MORRIS*        SUNNY     71  56  59 NW7       30.06S
LEWIS AIRPORT* SUNNY     71  56  58 NW8       30.07R
NORTHERLY ISL    N/A     73  47  39 W13         N/A
$$

WIZ051-052-058>065-066-070>072-231700-
SOUTHEAST WISCONSIN

CITY           SKY/WX    TMP DP  RH WIND       PRES   REMARKS
MILWAUKEE      MOSUNNY   71  51  49 NW10      30.03R
KENOSHA*       MOSUNNY   70  53  54 NW12      30.04S
RACINE*        SUNNY     71  52  50 NW14      30.05R
WAUKESHA       MOSUNNY   66  52  59 NW9       30.05S
WEST BEND      MOSUNNY   64  52  63 NW9G17    30.04R
$$

INZ001>003-010>013-019-020-231700-
NORTHWEST INDIANA

CITY           SKY/WX    TMP DP  RH WIND       PRES   REMARKS
GARY*          MOSUNNY   75  45  33 W10G23    30.05S
MICHIGAN CITY* NOT AVBL
RENSSELAER*    NOT AVBL
VALPARAISO     SUNNY     74  52  46 NW12      30.05R
$$

LMZ740>746-231700-
SOUTHERN LAKE MICHIGAN

STATION/POSITION TIME  SKY/WX   TEMP WIND        PRES    VSBY
                                AIR  DIR/SP/G
                 (UTC)          (F)  (DEG/KT/KT) (MB)    (MI)
HARRISON CRIB    1540            68   10/  7/  8   N/A
BURNHAM HARBOR   NOT AVBL
CALUMET HARBOR   1548            74  280/  5/ 11 1016.5R
BURNS HARBOR     1540            69  330/  8/ 12 1017.9R
MICHIGAN CITY    1540            68  310/ 15/ 16   N/A
$$

ABBREVIATIONS USED IN REMARKS
   TC - TEMPERATURE IN CELSIUS
  WCI - WIND CHILL INDEX
   HX - HEAT INDEX
  VSB - VISIBILITY
$$



USA.gov is the U.S. government's official web portal to all federal, state and local government web resources and services.